Время (UTC), дата Ветер
(°,м/с) 
Видим.   Явления Облачность Т
(°С)
Тd
(°С)
f(%) Тe
(°С)
Pmin
(гПа)
dP
(гПа)
Po
(мм)
O2
(г/м3)
Тmin Tmax R s Состояние
почвы
00 18.08.15 тихо ()   10 км    ясно 
+23.1 +13.3 54 +29  1008.5  -0.5  754  277           
03 18.08.15 200 (Ю) 10 км    1/0 верхняя 
[Ci fib]
+21.6 +18 80 +36  1008.2  -0.3  754  277  +21.5        сухая 
06 18.08.15 250 (З) 10 км    ясно 
+27.2 +18 57 +41  1008.4  0.3  754  272           
09 18.08.15 250 (З) 10 км    8/8 1000 м кучево-дожд. 
[Cb cap]
+31.3 +15.2 38 +40  1007.7  -0.7  753  269           
12 18.08.15 230 (ЮЗ) 4000 м  гроза, ливневой дождь  10/10 600 м кучево-дожд. 
[Cb cap]
+20.4 +16.9 80 +32  1009  1.2  754  279           
15 18.08.15 060 (СВ) 10 км  в посл. час ливневой дождь{гроза}  9/6 1000 м кучево-дожд., средняя, верхняя 
[Cb cap|Ac trans|Ci fib]
+23.3 +17.3 69 +36  1009.7  0.7  755  276    +31.7  15     
18 18.08.15 тихо ()   10 км  {гроза, ливн. осадки}  9/3 1000 м средняя, верхняя 
[Sc|Ac trans|Ci fib]
+21.4 +16.8 75 +33  1010.8  1.1  755  279           
21 18.08.15 тихо ()   10 км    9/3 1000 м средняя, верхняя 
[Sc|Ac trans|Ci fib]
+20.1 +17 82 +32  1011.1  0.3  756  280           
00 19.08.15 020 (С) 10 км    9/5 1000 м средняя 
[Sc|Ac trans]
+19.6 +17.3 87 +34  1011.5  0.4  756  280           
03 19.08.15 090 (В) 10 км    3/0 средняя 
[Ac trans]
+18.6 +16.7 89 +31  1012.2  0.7  757  282  +18.6        влажная 
06 19.08.15 030 (СВ) 10 км    8/4 1000 м верхняя 
[Sc|Ci fib]
+21.9 +17.1 74 +34  1013.3  1.1  757  279  +18.6         
09 19.08.15 030 (СВ) 10 км    8/3 1000 м средняя, верхняя 
[Cu hum|Ac trans|Ci fib]
+26.4 +17.9 60 +40  1013.3  757  274           
12 19.08.15 330 (СЗ) 10 км    8/8 1000 м 
[Cu med, cong]
+30.2 +15.7 42 +40  1013.2  0.1  757  272           
15 19.08.15 020 (С) 10 км    3/3 1000 м 
[Sc diur, vesp]
+27.7 +15.4 47 +37  1013.5  0.3  758  274    +30.3       
18 19.08.15 020 (С) 10 км    1/0 средняя 
[Ac trans]
+22.8 +15.6 64 +32  1015.3  1.7  759  279           
21 19.08.15 030 (СВ) 10 км    9/9 1000 м 
[Sc]
+21 +14.7 67 +29  1016  0.7  759  281           
00 20.08.15 020 (С) 10 км    9/4 1000 м средняя 
[Sc|Ac trans]
+19.8 +14.5 71 +28  1016.3  0.3  760  282           
03 20.08.15 030 (СВ) 10 км    1/0 средняя 
[Ac trans]
+18.3 +14 76 +27  1016.9  0.5  760  284  +18.3        влажная 
06 20.08.15 050 (СВ) 10 км    1/0 средняя 
[Ac trans]
+22.4 +14.7 62 +30  1017.7  0.9  761  280  +18.3         
09 20.08.15 060 (СВ) 10 км    9/6 1000 м средняя 
[Sc|Ac trans]
+26.2 +15.1 50 +35  1017.3  -0.4  760  276           
12 20.08.15 050 (СВ) 10 км    9/9 1000 м 
[Sc]
+27.4 +13.4 42 +33  1017  -0.3  760  276           
15 20.08.15 080 (В) 10 км    6/6 1000 м 
[Sc]
+25.8 +9.7 36 +26  1016.9  0.1  760  278    +27.9       
18 20.08.15 030 (СВ) 10 км    3/3 1000 м 
[Sc]
+22.7 +12.4 52 +27  1017.8  0.8  761  281           
21 20.08.15 030 (СВ) 10 км    ясно 
+19.9 +10.5 55 +23  1017.6  -0.2  761  284           
00 21.08.15 040 (СВ) 10 км    ясно 
+19 +8.3 50 +20  1017.7  761  285           
03 21.08.15 030 (СВ) 10 км    4/0 верхняя 
[Ci fib]
+17.2 +6.5 49 +18  1018.1  0.4  761  287  +17.1        сухая 
06 21.08.15 050 (СВ) 10 км    6/0 средняя, верхняя 
[Ac trans|Ci fib]
+22.6 +7.6 38 +23  1017.9  0.1  761  282           
09 21.08.15 040 (СВ) 2{10}  10 км    8/0 средняя, верхняя 
[Ac trans|Ci fib]
+27.4 +11.4 37 +30  1016.6  -1.2  760  276           
12 21.08.15 050 (СВ) 3{10}  10 км    8/8 1000 м средняя 
[Sc|Ac trans]
+29.6 +10.8 31 +32  1015.4  -1.2  759  274           
15 21.08.15 080 (В) 3{11}  10 км    3/3 1000 м 
[Sc]
+28.8 +10.9 33 +31  1014.8  -0.6  758  275    +30       
18 21.08.15 060 (СВ) 10 км    ясно 
+24.6 +12.5 47 +29  1015.7  0.9  759  278           
21 21.08.15 030 (СВ) 10 км    ясно 
+21.8 +12.8 57 +27  1015.7  0.1  759  281           
00 22.08.15 030 (СВ) 10 км    ясно 
+19.5 +7.1 45 +21  1015.2  -0.6  759  284           
03 22.08.15 030 (СВ) 10 км    ясно 
+18.6 +6.5 45 +20  1014.9  -0.3  758  285  +18.6        сухая 
06 22.08.15 060 (СВ) 4-10{10}  10 км    ясно 
+23.5 +12 48 +27  1014.9  0.1  759  279  +18.6         
09 22.08.15 060 (СВ) 4-10{10}  10 км    3/3 1000 м 
[Cu hum]
+28 +13.1 40 +33  1013.7  -1.1  758  274           
12 22.08.15 060 (СВ) 4{11}  10 км    3/1 1000 м средняя 
[Cu hum|Ac lent]
+30.2 +10.6 30 +32  1012.5  -1.2  757  273           
18 22.08.15 040 (СВ) 10 км    9/0 средняя, верхняя 
[Ac trans|Ci fib]
+25.3 +8.9 35 +25  1012  0.3  756  277           
21 22.08.15 060 (СВ) 10 км    5/0 средняя, верхняя 
[Ac trans|Ci fib]
+23.1 +10.9 46 +25  1011.3  -0.7  756  279           
00 23.08.15 050 (СВ) 10 км    4/0 средняя, верхняя 
[Ac trans|Ci fib]
+20.7 +11.7 56 +24  1010.7  -0.6  755  281           
03 23.08.15 040 (СВ) 10 км    3/1 1000 м средняя 
[Sc diur, vesp|Ac trans]
+19.1 +12.6 66 +26  1010.7  755  282  +19.1        сухая 
06 23.08.15 060 (СВ) 10 км    10/1 1000 м средняя, верхняя 
[Sc|Ac trans|Ci fib]
+22 +13.7 59 +28  1010.6  -0.1  755  279           
09 23.08.15 070 (В) 10 км    10/3 1000 м средняя, верхняя 
[Sc|Ac trans|Ci]
+25.9 +14.5 49 +34  1010.1  -0.4  755  275           
12 23.08.15 100 (В) 10 км    9/5 1000 м кучево-дожд., средняя 
[Cb cap|Ac trans]
+27.8 +15 46 +36  1009.1  -1  754  273           
15 23.08.15 100 (В) 10 км    9/5 1000 м кучево-дожд., средняя 
[Cb cap|Ac trans]
+26.6 +15.3 50 +36  1008.8  -0.4  754  274    +28.2       
18 23.08.15 тихо ()   10 км    9/0 средняя 
[Ac trans]
+23.8 +18.4 72 +39  1008.6  -0.2  754  275           
21 23.08.15 070 (В) 10 км    8/4 1000 м средняя 
[Sc|Ac trans]
+22 +16.8 72 +34  1008  -0.6  753  277           
00 24.08.15 070 (В) 10 км  слаб. ливневой дождь  8/8 1000 м кучево-дожд. 
[Cb cap]
+21.3 +15.4 69 +31  1007.7  -0.4  753  278           
03 24.08.15 020 (С) 2000 м  ливневой дождь  10/10 600 м кучево-дожд. 
[Cb cap]
+20.3 +15.9 76 +30  1008.6  0.9  754  279  +20.3      влажная 
06 24.08.15 280 (З) 4000 м  гроза, ливневой дождь  10/10 600 м кучево-дожд. 
[Cb cap]
+17.1 +16.3 95 +30  1010.2  1.6  755  283  +16.8         
09 24.08.15 250 (З) 10 км  {гроза, ливн. осадки}  10/10 1000 м 
[Sc diur, vesp]
+21 +18.7 87 +37  1010.3  0.1  755  278           
12 24.08.15 240 (ЮЗ) 10 км  {гроза, ливн. осадки}  10/10 600 м кучево-дожд. 
[Cb cap]
+24.3 +18.2 69 +39  1010.3  0.1  755  275           
15 24.08.15 090 (В) 10 км    10/10 600 м кучево-дожд. 
[Cb cap]
+23.1 +13.7 55 +29  1012.2  1.9  757  278    +26.2  44     
18 24.08.15 060 (СВ) 10 км    9/3 1000 м средняя 
[Sc|Ac trans]
+20.7 +12.7 60 +25  1013.9  1.6  758  281           
21 24.08.15 040 (СВ) 10 км    8/0 средняя, верхняя 
[Ac trans|Ci]
+19.7 +12.6 64 +26  1015.2  1.6  759  283           
00 25.08.15 030 (СВ) 10 км    10/4 1000 м средняя 
[Sc|Ac und]
+18.9 +12.1 65 +24  1015.1  0.1  759  284           
03 25.08.15 040 (СВ) 10 км    10/1 1000 м средняя, верхняя 
[Sc|Ac trans|Ci fib]
+18.1 +5.3 43 +19  1015.8  0.6  759  286  +18.1        влажная 
06 25.08.15 060 (СВ) 4{10}  10 км    9/4 1000 м кучево-дожд., средняя 
[Cb calv|Ac trans]
+19 -0.4 27 +19  1016.8  760  286  +18.1         
09 25.08.15 060 (СВ) 3{11}  10 км    9/0 средняя, верхняя 
[Ac trans|Ci fib]
+24 +2.4 24 +24  1016.4  -0.3  760  281           
12 25.08.15 050 (СВ) 4{12}  10 км    9/3 1000 м средняя 
[Sc|Ac trans]
+24.8 +2.4 23 +25  1015.5  -0.9  759  280           
15 25.08.15 070 (В) 3{12}  10 км    8/0 средняя, верхняя 
[Ac trans|Ci fib]
+24.9 +5.7 29 +25  1014.7  -0.8  758  279    +25.9       
18 25.08.15 030 (СВ) 10 км    9/8 1000 м средняя 
[Sc|Ac trans]
+22.1 +6.5 36 +22  1015.4  0.7  759  282           
21 25.08.15 040 (СВ) 10 км    6/0 средняя, верхняя 
[Ac trans|Ci fib]
+19.4 -1.6 24 +20  1015.2  -0.2  759  286           
00 26.08.15 030 (СВ) 10 км    6/0 средняя, верхняя 
[Ac trans|Ci fib]
+17.1 -2.5 26 +18  1015.4  0.2  759  288           
03 26.08.15 040 (СВ) 10 км    3/3 1000 м верхняя 
[Sc diur, vesp|Ci fib]
+15.3 -2.1 30 +17  1016.7  1.2  760  290  +15.3        влажная 
06 26.08.15 050 (СВ) 10 км    8/0 верхняя 
[Ci]
+21.1 +3.7 32 +21  1017.3  0.7  760  284  +15.1         
09 26.08.15 080 (В) 4{10}  10 км    4/0 верхняя 
[Ci sp]
+26.5 -1.3 16 +27  1016.7  -0.5  760  279           
12 26.08.15 030 (СВ) 10 км    4/0 верхняя 
[Ci sp]
+28.9 +8.1 27 +29  1016.3  -0.4  760  275           
15 26.08.15 060 (СВ) 10 км    3/0 средняя, верхняя 
[Ac trans|Ci fib]
+27.6 +7.7 28 +28  1016.1  -0.2  759  277    +28.9       
18 26.08.15 060 (СВ) 10 км    ясно 
+23.6 +6.3 33 +24  1017.2  1.1  760  281           
21 26.08.15 080 (В) 10 км    ясно 
+20.5 +6.3 40 +21  1017.4  0.2  760  284           
00 27.08.15 050 (СВ) 10 км    ясно 
+18.5 +8.4 52 +20  1017.6  0.1  761  286           
03 27.08.15 070 (В) 10 км    ясно 
+16 +7.1 56 +17  1018.3  0.7  761  289  +15.2        сухая 
06 27.08.15 060 (СВ) 10 км    ясно 
+22.5 +10.6 47 +24  1018.7  0.5  761  282           
09 27.08.15 060 (СВ) 10 км    ясно 
+27.8 +7.3 27 +28  1018.5  -0.2  761  277           
12 27.08.15 060 (СВ) 10 км    3/0 верхняя 
[Ci fib]
+30.1 +3.4 18 +30  1017.5  -1  761  276           
15 27.08.15 060 (СВ) 10 км    3/0 верхняя 
[Ci fib]
+29.4 +4.2 20 +29  1017  -0.5  760  276    +31.3       
18 27.08.15 320 (СЗ) 10 км    3/0 верхняя 
[Ci fib]
+20.8 +11.6 56 +24  1018  0.8  761  283           
21 27.08.15 тихо ()   10 км    1/0 верхняя 
[Ci fib]
+20.1 +6.7 42 +20  1018.1  0.2  761  285           
00 28.08.15 тихо ()   10 км    ясно 
+16.8 +8.4 58 +17  1018.5  0.3  761  288           
03 28.08.15 тихо ()   10 км    3/0 верхняя 
[Ci fib]
+15.2 +11.4 78 +18  1019  0.5  762  289  +14.8        сухая 
06 28.08.15 тихо ()   10 км    9/4 1000 м средняя, верхняя 
[Sc|Ac trans|Cc]
+22 +9.4 45 +22  1019.9  0.9  762  283           
09 28.08.15 300 (СЗ) 10 км    9/4 1000 м средняя, верхняя 
[Sc|Ac As|Ci fib]
+24.9 +11.2 42 +27  1020.4  0.5  763  280           
12 28.08.15 110 (В) 10 км    6/0 средняя, верхняя 
[Ac trans|Ci fib]
+29.1 +6.2 24 +29  1019.2  -1.1  762  276           
15 28.08.15 170 (Ю) 10 км    3/0 верхняя 
[Ci fib]
+28.1 +5.1 23 +28  1018.7  -0.6  761  277    +29.7       
18 28.08.15 290 (З) 10 км    5/0 средняя, верхняя 
[Ac trans|Ci fib]
+21.4 +10 48 +22  1019.7  762  283           
21 28.08.15 тихо ()   10 км    6/0 средняя, верхняя 
[Ac trans|Ci fib]
+19.4 +9 51 +19  1019.7  0.1  762  285           
00 29.08.15 тихо ()   10 км    3/0 верхняя 
[Ci fib]
+16.3 +10.2 67 +17  1019.5  -0.2  762  288           
03 29.08.15 090 (В) 10 км    ясно 
+14.5 +10.5 77 +17  1020.1  0.5  762  290  +14.4        сухая 
06 29.08.15 030 (СВ) 10 км    ясно 
+23.5 +12.5 50 +28  1020.5  0.6  763  281           
09 29.08.15 080 (В) 10 км    ясно 
+29.3 +8.8 28 +29  1019.9  -0.6  762  276           
12 29.08.15 110 (В) 10 км    ясно 
+31.6 +2.5 16 +32  1018.8  -1  762  275           
15 29.08.15 тихо ()   10 км    1/0 средняя 
[Ac trans]
+30.8 +1.5 15 +31  1017.9  -0.9  761  275    +32.5       
18 29.08.15 300 (СЗ) 10 км    6/0 верхняя 
[Ci fib]
+24.5 +7 33 +25  1018.8  0.9  761  280           
21 29.08.15 220 (ЮЗ) 10 км    1/0 средняя 
[Ac trans]
+20.7 +9.5 49 +21  1018.9  0.1  762  284           
00 30.08.15 200 (Ю) 10 км    ясно 
+18 +11.1 64 +21  1018.3  -0.7  761  286           
03 30.08.15 200 (Ю) 10 км    ясно 
+16.4 +9.3 63 +18  1018.2  0.1  761  288  +16        сухая 
06 30.08.15 230 (ЮЗ) 10 км    3/0 средняя 
[Ac trans]
+24.2 +9.7 40 +25  1017.8  -0.3  761  280           
09 30.08.15 270 (З) 10 км    9/9 1000 м 
[Sc]
+26.9 +16.5 53 +38  1017.6  0.1  761  275           
12 30.08.15 290 (З) 10 км    6/5 1000 м средняя 
[Sc|Ac trans]
+30.2 +14.7 39 +38  1017.3  -0.3  760  273           
15 30.08.15 350 (С) 10 км    3/1 1500 м средняя 
[Sc diur, vesp|Ac cast]
+28.7 +9.2 30 +29  1017.2  -0.1  760  276    +30.5       
18 30.08.15 310 (СЗ) 10 км    ясно 
+23.1 +5 31 +23  1019.2  1.9  762  282           
21 30.08.15 тихо ()   10 км    ясно 
+18 +9.7 58 +18  1020.1  0.8  762  287           
00 31.08.15 тихо ()   10 км    3/0 средняя, верхняя 
[Ac trans|Ci]
+15.8 +12.4 80 +20  1020  0.1  762  288           
03 31.08.15 тихо ()   10 км    ясно 
+14.7 +12.6 87 +19  1019.9  0.1  762  289  +14.7        сухая 
06 31.08.15 250 (З) 10 км    ясно 
+22.2 +12.9 56 +27  1020.1  0.3  762  282           
09 31.08.15 260 (З) 10 км    ясно 
+27.5 +6.9 27 +28  1019.3  -0.8  762  278           
12 31.08.15 260 (З) 10 км    ясно 
+28.8 +6.7 25 +29  1018.4  -0.8  761  276           
15 31.08.15 280 (З) 10 км    ясно 
+26.1 +5.1 26 +26  1018.9  0.4  762  279    +29.7       
18 31.08.15 290 (З) 10 км    ясно 
+21.8 +7.8 40 +22  1019.4  0.4  762  283           
21 31.08.15 240 (ЮЗ) 10 км    3/0 средняя, верхняя 
[Ac trans|Ci fib]
+18.5 +10.4 59 +21  1019.2  -0.2  762  286           
00 01.09.15 200 (Ю) 10 км    4/0 средняя, верхняя 
[Ac trans|Ci fib]
+16 +10.5 70 +19  1018.9  -0.3  761  288           
03 01.09.15 220 (ЮЗ) 10 км    1/0 верхняя 
[Ci fib]
+15.1 +9.9 71 +17  1018.9  761  289  +15.1        сухая 
06 01.09.15 200 (Ю) 10 км    ясно 
+22.8 +9 41 +23  1018.9  0.1  762  282  +14.8         
09 01.09.15 220 (ЮЗ) 10 км    1/0 средняя 
[Ac trans]
+29.1 +7.1 25 +29  1018.2  -0.6  761  276           
12 01.09.15 280 (З) 10 км    8/0 верхняя 
[Ci]
+30.8 +7.8 24 +31  1017.4  -0.8  761  274           
15 01.09.15 280 (З) 10 км    ясно 
+28.9 +6.4 24 +29  1017.2  -0.3  760  276    +31       
18 01.09.15 тихо ()   10 км    ясно 
+21.4 +12.9 58 +26  1017.6  0.3  761  282           
21 01.09.15 180 (Ю) 10 км    ясно 
+20.7 +12 57 +24  1017.3  -0.3  760  283           
00 02.09.15 190 (Ю) 10 км    ясно 
+19.3 +12.4 64 +25  1016.7  -0.7  760  284           
03 02.09.15 тихо ()   10 км    ясно 
+18.1 +12 68 +22  1016.5  -0.2  760  285  +18.1        сухая 
06 02.09.15 280 (З) 10 км    1/0 средняя 
[Ac trans]
+26.2 +12.9 44 +31  1016.6  0.3  760  277  +17.8         
09 02.09.15 210 (ЮЗ) 10 км    ясно 
+31.1 +11.5 30 +34  1015.9  -0.7  759  273           
12 02.09.15 320 (СЗ) 10 км    ясно 
+33.8 +11.1 25 +36  1014.1  -1.7  758  270           
15 02.09.15 270 (З) 10 км    ясно 
+32.1 +11.1 28 +35  1013.1  -1  757  271    +34       
18 02.09.15 300 (СЗ) 10 км    ясно 
+25.8 +14.9 51 +34  1013.8  0.6  758  276           
21 02.09.15 тихо ()   10 км    ясно 
+22.3 +14.2 60 +29  1013.6  -0.2  758  279           
00 03.09.15 200 (Ю) 10 км    ясно 
+20.1 +15.7 76 +30  1013.3  -0.3  757  281           
03 03.09.15 тихо ()   10 км    ясно 
+18.6 +15.8 84 +28  1013.5  0.2  758  282  +18.5        сухая 
06 03.09.15 190 (Ю) 10 км    ясно 
+26.4 +13.8 46 +33  1013.6  0.1  758  276           
09 03.09.15 060 (СВ) 10 км    ясно 
+32.1 +12.9 31 +37  1012.7  -0.8  757  271           
12 03.09.15 340 (С) 10 км    ясно 
+35.1 +11.3 24 +38  1011.3  -1.3  756  268           
15 03.09.15 280 (З) 10 км    3/0 средняя, верхняя 
[Ac trans|Ci fib]
+32.9 +11.4 27 +36  1010.7  -0.6  755  270    +35.6       
18 03.09.15 тихо ()   10 км    6/0 средняя, верхняя 
[Ac trans|Ci fib]
+27.2 +13.6 43 +33  1011.3  0.5  756  274           
21 03.09.15 200 (Ю) 10 км    4/0 средняя, верхняя 
[Ac trans|Ci fib]
+23.3 +12.9 52 +28  1011.2  0.1  756  278           
00 04.09.15 тихо ()   10 км    4/0 средняя, верхняя 
[Ac trans|Ci fib]
+20.3 +14.9 71 +29  1011.6  0.3  756  280           
03 04.09.15 тихо ()   10 км    ясно 
+18.7 +14.9 79 +27  1011.8  0.2  756  282  +18.7        сухая 
06 04.09.15 тихо ()   10 км    ясно 
+27.1 +15.2 48 +36  1012  0.3  756  274  +18.4         
Время (UTC), дата Ветер
(°,м/с) 
Видим.   Явления Облачность Т
(°С)
Тd
(°С)
f(%) Тe
(°С)
Pmin
(гПа)
dP
(гПа)
Po
(мм)
O2
(г/м3)
Тmin Tmax R s Состояние
почвы